Tracking 19854 objects as of 23-Sep-2019
HD Live streaming from Space Station
objects crossing your sky now

FENGYUN 1C DEB

Track FENGYUN 1C DEB now!
10-day predictions


NORAD ID: 31929
Int'l Code: 1999-025CME
Perigee: 746.4 km
Apogee: 861.8 km
Inclination: 98.7 °
Period: 100.8 minutes
Semi major axis: 7175 km
RCS: 0.0033 m2 (small)
Launch date: May 10, 1999
Source: People's Republic of China (PRC)
Launch site: Taiyaun Space Center, China (TSC)

Note: This is SATELLITE DEBRIS
aabbcc
Your satellite tracking list
Your tracking list is empty




NASA's NSSDC Master Catalog

Two Line Element Set (TLE):
1 31929U 99025CME 19257.49495297  .00000179  00000-0  86712-4 0  9997
2 31929  98.6819 351.7143 0080390 258.2012 101.0144 14.28436867641822
Source of the keplerian elements: AFSPC